Dewpoint
19 17 16 15 14 13 10 10 9 11 7 7 29 29 28 28 29 30 31 34 37 40 40 40 40 41 42 45 44 44 43 44 43 43 42 44 43 43 44 44 42 38 38 39
17 18 16 16 15 13 11 10 9 9 11 29 27 27 28 29 29 30 34 37 39 39 38 38 39 40 42 44 43 41 42 43 42 41 41 41 41 41 41 40 39 40 39 39
17 17 16 13 16 12 10 8 15 17 26 26 26 27 29 29 30 34 36 38 40 39 38 40 38 44 42 41 40 39 39 40 40 39 38 38 38 38 37 37 38 38 38 38
15 15 8 13 13 11 14 20 26 24 24 27 29 30 30 31 37 35 36 39 39 39 39 38 40 43 42 40 38 38 38 37 36 36 34 34 35 34 33 35 34 34 34 35
12 10 10 10 18 23 22 22 25 22 26 28 30 30 26 32 37 38 39 39 39 40 38 38 41 42 40 38 36 35 35 34 34 34 33 33 32 32 32 32 32 33 33 34
15 10 6 11 24 25 21 17 26 23 26 30 30 25 26 34 38 38 38 34 33 35 36 37 40 42 40 37 35 34 34 34 34 34 34 33 33 32 33 33 32 32 32 33
16 15 20 26 22 24 16 15 24 27 30 31 30 32 35 38 36 33 33 32 33 33 28 31 37 41 41 37 35 35 35 33 33 33 34 34 33 33 32 32 32 32 32 32
17 16 10 27 23 13 21 25 28 32 31 31 34 37 37 33 32 31 31 32 33 34 35 32 37 37 40 38 36 35 35 34 33 33 35 34 33 33 33 32 32 31 31 31
15 14 20 26 23 26 29 26 32 31 30 33 36 35 33 33 32 33 31 32 33 34 37 39 38 38 39 37 35 34 34 34 33 33 33 34 33 32 32 32 31 31 30 30
17 18 21 22 27 30 31 32 31 30 32 37 35 35 34 32 32 32 32 31 33 34 35 39 41 39 39 38 35 34 33 33 34 33 32 33 34 34 33 32 31 30 29 28
15 22 23 21 26 27 30 32 32 33 35 31 34 31 31 31 31 31 32 32 33 33 35 37 38 42 40 38 35 34 33 34 34 33 33 33 33 34 34 34 32 31 30 29
16 23 26 27 30 27 29 32 37 33 30 31 30 30 30 30 31 31 32 32 33 34 34 37 36 37 39 38 37 34 32 33 33 33 33 33 33 32 34 33 34 33 30 28
29 31 31 34 35 37 35 30 29 30 30 30 31 31 31 30 30 31 30 30 31 33 34 37 37 36 36 38 37 35 33 33 33 33 33 33 32 32 30 33 32 31 31 30
32 33 31 32 35 33 28 28 29 28 29 30 30 31 32 30 30 31 32 30 30 31 32 36 37 36 37 35 35 36 33 32 33 33 33 33 33 33 32 31 30 30 31 30
31 32 35 35 30 28 28 28 27 28 28 30 30 30 30 30 28 29 31 32 31 32 34 35 34 34 35 33 33 34 34 33 33 33 33 33 33 32 32 32 32 30 31 31
28 31 29 28 27 27 27 27 27 28 27 29 30 30 30 30 29 28 30 32 31 31 32 33 31 32 32 32 33 33 33 32 32 32 32 32 32 32 32 31 31 31 30 29
27 27 28 27 27 26 24 26 24 28 30 29 27 28 28 26 27 27 28 30 31 32 32 32 31 33 32 32 32 32 32 32 32 32 32 32 32 32 32 31 31 30 29 29
28 29 29 28 28 26 26 29 29 28 28 29 29 27 27 28 26 28 29 30 30 32 32 32 33 31 32 32 32 32 31 31 32 32 32 32 32 32 31 31 30 29 28 29
27 27 28 26 28 30 29 29 29 29 27 27 26 24 24 25 26 27 30 30 31 31 32 33 32 31 32 31 31 31 31 31 31 32 32 32 32 32 31 31 30 30 29 28
30 35 35 34 31 30 29 29 28 27 26 26 26 22 19 25 26 25 28 29 32 32 32 32 32 32 32 32 31 32 32 31 31 31 31 31 31 31 31 31 30 30 29 28
30 30 30 30 29 28 26 26 25 23 26 20 24 19 17 22 25 26 22 28 26 28 30 30 31 33 32 32 32 31 31 32 32 32 32 32 32 31 30 30 30 30 29 29
30 29 28 26 26 25 24 26 27 22 20 19 19 17 15 21 19 25 20 27 27 27 28 28 30 32 32 31 32 31 31 31 32 32 32 32 32 31 30 30 30 30 29 29
28 29 26 25 22 25 25 25 21 25 21 18 17 22 25 26 28 26 24 26 27 26 25 27 30 31 32 31 31 31 31 31 32 32 32 32 32 32 31 31 31 30 30 29
26 26 25 26 27 27 27 27 28 28 22 21 19 20 25 25 22 26 26 24 27 28 26 27 29 30 32 31 31 31 32 32 32 32 32 32 32 32 32 32 31 31 30 29
23 23 24 24 24 23 25 26 26 24 21 21 22 23 24 24 21 24 24 24 23 24 24 22 24 29 30 31 30 31 32 32 32 32 32 32 32 32 32 32 32 32 31 30
21 21 22 22 22 22 23 25 24 21 19 19 20 19 21 21 21 22 22 20 23 22 24 23 24 26 28 29 31 31 32 31 31 32 32 32 32 32 32 32 32 32 31 31
21 19 21 20 22 25 26 23 20 19 19 14 13 17 18 19 20 18 18 20 19 19 21 23 25 25 28 28 30 30 32 32 32 32 32 33 32 32 32 33 33 32 32 32
Lifted_Index
7 8 8 8 8 8 7 5 5 4 4 3 2 2 2 3 3 2 1 -0 -1 -1 -1 -0 -0 -0 -0 -0 -0 -0 1 1 2 2 2 2 2 2 2 2 2 2 2 2
7 8 8 8 8 7 6 5 4 4 3 2 2 2 2 2 2 2 1 -0 -1 -1 -0 -0 -0 -0 -0 0 0 1 1 1 2 2 2 3 3 3 2 2 2 2 2 2
7 7 7 7 7 6 5 4 3 3 2 2 2 2 2 2 2 1 0 -0 -0 -0 -0 -0 -0 -0 0 1 2 2 2 2 3 4 5 5 4 4 4 4 4 3 3 3
6 6 5 5 5 4 4 3 2 1 1 2 2 2 2 2 2 1 1 0 0 0 -0 -0 -0 -0 1 1 2 3 2 2 3 6 7 7 6 6 6 6 5 5 5 5
5 4 3 3 3 2 2 1 1 1 1 2 2 2 2 2 2 2 1 1 1 0 0 0 -0 0 1 2 2 3 2 2 4 6 8 8 8 8 8 7 7 7 7 7
2 2 2 1 1 1 1 1 1 1 2 2 2 2 2 2 2 2 2 1 1 1 1 1 0 0 1 1 2 3 3 3 4 6 8 9 9 10 9 9 9 9 9 9
1 0 0 0 0 0 1 1 1 2 2 2 2 2 2 3 3 2 2 2 1 1 1 1 1 1 1 1 3 3 3 3 4 6 8 9 10 11 11 11 10 10 11 11
0 0 0 0 0 1 1 1 1 2 2 2 2 3 3 3 3 3 3 2 1 1 0 1 1 1 1 2 3 4 4 3 4 6 8 10 10 11 11 11 11 11 11 11
0 0 0 0 0 1 1 1 1 2 2 3 3 3 3 3 3 3 3 2 2 1 0 0 1 1 1 2 3 3 4 3 4 5 7 9 10 10 11 11 11 11 11 11
0 0 0 0 1 1 1 2 2 2 3 3 3 4 4 4 4 4 4 3 3 2 1 1 1 1 1 2 2 3 3 3 4 5 6 8 9 10 10 10 10 10 10 10
1 1 1 1 1 2 2 2 3 3 3 3 4 4 4 4 4 4 4 4 3 3 2 2 2 2 2 2 2 2 3 3 4 4 5 7 8 9 10 10 9 9 10 10
1 1 1 2 2 2 2 2 3 3 4 4 5 5 5 5 5 5 5 4 4 3 3 2 2 2 2 2 2 2 3 3 4 4 5 6 7 8 9 9 9 9 10 11
2 2 2 2 2 2 3 3 3 4 4 5 5 6 6 5 5 5 5 5 4 4 3 3 3 3 3 3 3 3 3 3 4 4 5 6 6 7 7 8 9 10 11 11
2 3 3 3 3 3 3 4 4 5 5 5 5 6 5 5 5 5 5 5 5 4 4 3 3 3 3 3 3 3 3 3 4 4 5 6 7 7 7 7 8 9 10 11
3 3 3 3 3 4 4 4 4 5 5 5 6 6 5 5 5 5 5 5 5 5 4 4 3 3 4 4 4 4 4 5 5 5 5 7 8 8 8 8 8 8 10 10
3 3 3 3 4 4 5 5 5 5 5 6 6 6 6 6 6 6 6 5 5 5 5 4 4 4 4 4 5 6 6 6 6 6 6 7 9 9 9 9 8 9 9 10
4 4 4 4 4 4 5 5 5 5 6 6 7 7 7 7 7 7 6 6 5 5 5 5 5 4 5 5 6 7 7 7 7 7 7 8 9 10 10 9 9 9 9 10
4 4 4 4 4 5 5 5 5 6 6 7 7 8 8 8 7 7 7 6 6 6 6 6 5 5 5 6 7 7 8 8 8 8 9 9 10 10 10 10 9 9 10 10
4 4 4 4 5 5 5 5 5 6 7 7 8 8 8 8 8 8 8 7 7 6 6 6 6 5 5 6 7 8 8 9 9 9 10 10 11 11 10 10 10 10 10 10
4 4 4 4 4 4 5 5 5 6 7 7 7 8 8 8 8 8 8 8 8 7 7 7 6 6 6 6 7 8 8 9 9 10 10 11 11 10 10 10 10 10 10 10
3 4 4 4 4 4 5 5 6 6 7 7 7 7 7 8 8 8 8 8 9 9 8 8 7 7 6 6 7 7 8 8 9 9 9 10 10 10 9 9 9 9 9 10
4 4 4 4 4 5 5 6 6 6 6 6 7 7 7 7 7 8 8 9 9 10 9 9 8 7 7 7 6 6 7 7 8 8 9 9 9 9 9 9 9 9 9 9
5 5 5 5 5 5 6 6 6 6 6 6 7 7 7 7 7 8 8 9 10 10 10 10 9 8 7 7 6 6 6 7 7 8 8 8 8 8 8 8 8 9 9 9
5 6 6 6 6 6 6 6 6 7 7 7 7 8 8 8 8 8 9 10 10 10 10 10 10 9 8 7 6 6 6 6 7 7 8 8 8 8 9 9 9 9 9 10
6 6 6 6 7 7 7 7 7 7 7 8 8 8 9 9 9 10 10 11 11 11 11 11 11 10 9 7 7 6 6 6 7 7 7 8 8 8 9 9 9 9 10 10
7 7 7 7 7 7 7 8 8 8 8 8 9 10 10 11 11 11 11 11 11 11 11 11 11 11 10 8 7 6 6 6 7 7 7 7 8 8 9 9 9 9 10 10
7 7 7 7 7 8 8 8 8 8 9 9 10 11 11 11 11 11 11 11 11 11 11 11 11 11 10 9 8 7 6 6 7 7 7 8 8 8 8 9 9 9 10 10